Columbus, GA

1:41 PM EST on January 19, 2018 (GMT -0500)
Columbus Metro

Weather History for KCSG - August, 2013

Change the Weather History Date:

Friday, August 23, 2013

  Actual Average Record
Temperature  
Mean Temperature 82 °F 82 °F  
Max Temperature 90 °F 91 °F 101 °F (1968)
Min Temperature 73 °F 72 °F 61 °F (1930)
Degree Days  
Heating Degree Days 0 0  
Month to date heating degree days 0 0  
Since 1 June heating degree days 0 0  
Since 1 July heating degree days 0 0  
Cooling Degree Days 17 17  
Month to date cooling degree days 360 395  
Year to date cooling degree days 1659 1743  
Since 1 June cooling degree days 1296 1385  
Growing Degree Days 31 (Base 50)    
Moisture  
Dew Point 71 °F    
Average Humidity 73    
Maximum Humidity 93    
Minimum Humidity 52    
Precipitation  
Precipitation 0.02 in 0.12 in 2.18 in (2008)
Month to date precipitation 8.59 2.86  
Year to date precipitation 50.33 31.83  
Sea Level Pressure  
Sea Level Pressure 30.03 in    
Wind  
Wind Speed 4 mph (ESE)    
Max Wind Speed 16 mph    
Max Gust Speed 23 mph    
Visibility 10 miles    
Events Rain , Thunderstorm    
T = Trace of Precipitation, MM = Missing Value Source: NWS Daily Summary

Daily Weather History Graph

Daily Weather History Graph

Search for Another Location

Airport or City:

Trip Planner

Search our weather history database for the weather conditions in past years. The results will help you decide how hot, cold, wet, or windy it might be!

Date:

Astronomy

Aug. 23, 2013 Rise Set
Actual Time 7:09 AM EDT 8:15 PM EDT
Civil Twilight 6:43 AM EDT 8:40 PM EDT
Nautical Twilight 6:13 AM EDT 9:10 PM EDT
Astronomical Twilight 5:42 AM EDT 9:41 PM EDT
Moon 9:48 PM EDT (8/23) 9:50 AM EDT (8/23)
Length of Visible Light 13h 56m
Length of Day
13h 06m
Waning Gibbous, 91% of the Moon is Illuminated
Aug 23
Waning Gibbous
Aug 28
Last Quarter
Sep 5
New
Sep 12
First Quarter
Sep 19
Full

Hourly Weather History & Observations

Time (EDT) Temp. Heat Index Dew Point Humidity Pressure Visibility Wind Dir Wind Speed Gust Speed Precip Events Conditions
12:51 AM 77.0 °F - 73.0 °F 88% 30.06 in 10.0 mi ENE 3.5 mph - N/A   Clear
1:51 AM 75.9 °F - 72.0 °F 87% 30.05 in 10.0 mi Calm Calm - N/A   Clear
2:51 AM 75.0 °F - 72.0 °F 90% 30.04 in 10.0 mi South 4.6 mph - N/A   Clear
3:51 AM 75.0 °F - 72.0 °F 90% 30.03 in 10.0 mi Calm Calm - N/A   Clear
4:04 AM 75.2 °F - 71.6 °F 89% 30.04 in 10.0 mi Calm Calm - N/A   Scattered Clouds
4:51 AM 75.0 °F - 72.0 °F 90% 30.01 in 10.0 mi Calm Calm - N/A   Clear
5:23 AM 73.4 °F - 71.6 °F 94% 30.03 in 10.0 mi Calm Calm - N/A   Partly Cloudy
5:51 AM 73.0 °F - 71.1 °F 93% 30.03 in 9.0 mi Calm Calm - N/A   Clear
6:16 AM 73.4 °F - 71.6 °F 94% 30.05 in 10.0 mi Calm Calm - N/A   Scattered Clouds
6:26 AM 73.4 °F - 71.6 °F 94% 30.05 in 10.0 mi Calm Calm - N/A   Mostly Cloudy
6:51 AM 73.0 °F - 71.1 °F 93% 30.04 in 7.0 mi Calm Calm - N/A   Overcast
7:51 AM 73.9 °F - 72.0 °F 93% 30.05 in 10.0 mi Calm Calm - N/A   Overcast
8:51 AM 75.9 °F - 72.0 °F 87% 30.07 in 7.0 mi North 3.5 mph - N/A   Overcast
9:51 AM 75.9 °F - 71.1 °F 85% 30.07 in 8.0 mi NNE 5.8 mph - N/A   Overcast
10:51 AM 80.1 °F 83.8 °F 72.0 °F 76% 30.08 in 10.0 mi Variable 3.5 mph - N/A   Partly Cloudy
11:51 AM 84.9 °F 89.4 °F 70.0 °F 61% 30.06 in 10.0 mi Calm Calm - N/A   Clear
12:51 PM 87.1 °F 91.3 °F 69.1 °F 55% 30.04 in 10.0 mi Variable 3.5 mph - N/A   Clear
1:51 PM 89.1 °F 94.1 °F 70.0 °F 53% 30.02 in 10.0 mi NE 5.8 mph - N/A   Scattered Clouds
2:51 PM 89.1 °F 94.1 °F 70.0 °F 53% 30.00 in 10.0 mi East 4.6 mph - N/A   Scattered Clouds
3:51 PM 88.0 °F 92.9 °F 70.0 °F 55% 29.97 in 10.0 mi ESE 3.5 mph - N/A   Mostly Cloudy
4:51 PM 84.0 °F 89.0 °F 71.1 °F 65% 29.97 in 10.0 mi WSW 8.1 mph 23.0 mph N/A   Overcast
5:51 PM 84.9 °F 88.2 °F 68.0 °F 57% 29.97 in 10.0 mi WNW 5.8 mph - N/A   Clear
6:14 PM 86.0 °F 90.4 °F 69.8 °F 58% 29.98 in 10.0 mi Calm Calm - N/A Thunderstorm Thunderstorm
6:51 PM 86.0 °F 90.7 °F 70.0 °F 59% 29.98 in 10.0 mi NE 10.4 mph - N/A Thunderstorm Scattered Clouds
7:51 PM 82.0 °F 84.9 °F 68.0 °F 62% 30.00 in 10.0 mi South 8.1 mph - N/A Thunderstorm Mostly Cloudy
8:51 PM 78.1 °F - 69.1 °F 74% 30.03 in 10.0 mi East 9.2 mph - 0.00 in Thunderstorm Mostly Cloudy
9:01 PM 78.8 °F - 68.0 °F 69% 30.04 in 10.0 mi SE 13.8 mph - N/A   Mostly Cloudy
9:51 PM 75.9 °F - 68.0 °F 76% 30.05 in 10.0 mi South 4.6 mph - N/A Thunderstorm Overcast
10:13 PM 75.2 °F - 69.8 °F 83% 30.06 in 10.0 mi Variable 3.5 mph - 0.01 in Rain Light Rain
10:51 PM 73.9 °F - 69.1 °F 85% 30.06 in 10.0 mi ESE 10.4 mph - 0.02 in Rain Light Rain
11:51 PM 75.0 °F - 69.1 °F 82% 30.03 in 10.0 mi Calm Calm - 0.00 in   Clear